AirNav   $300 off a Bose A20 aviation headset
 
 287 users online  

2O1 Gansner Field Airport
Quincy, California, USA

GOING TO QUINCY?


FAA INFORMATION EFFECTIVE 28 FEBRUARY 2019

Location

FAA Identifier: 2O1
Lat/Long: 39-56-38.1000N / 120-56-43.4000W
39-56.635000N / 120-56.723333W
39.9439167 / -120.9453889
(estimated)
Elevation: 3418.6 ft. / 1042 m (estimated)
Variation: 17E (1985)
From city: 1 mile N of QUINCY, CA
Time zone: UTC -8 (UTC -7 during Daylight Saving Time)
Zip code: 95971

Airport Operations

Airport use: Open to the public
Activation date: 12/1949
Control tower: no
ARTCC: OAKLAND CENTER
FSS: RANCHO MURIETA FLIGHT SERVICE STATION
NOTAMs facility: RIU (NOTAM-D service available)
Attendance: UNATNDD
Wind indicator: lighted
Segmented circle: yes
Lights: ACTVT MIRL RWY 07/25 - CTAF.
Beacon: white-green (lighted land airport)
ROTG BCN LOCATED 2000 FT NORTH OF ARPT ON TOP OF HILL. SECONDARY WHITE BCN 3 MI SOUTH OF ARPT. Operates sunset to sunrise.

Airport Communications

CTAF/UNICOM: 122.7
WX AWOS-2: 135.600 (530-283-6528)

Airport Services

Fuel available: 100LL
24 HR 100LL FUEL BY CREDIT CARD.
Parking: tiedowns
Airframe service: NONE
Powerplant service: NONE
Bottled oxygen: NONE
Bulk oxygen: NONE

Runway Information

Runway 7/25

Dimensions: 4105 x 60 ft. / 1251 x 18 m
Surface: asphalt, in good condition
Weight bearing capacity: 
Single wheel: 12.5
Runway edge lights: medium intensity
RUNWAY 7  RUNWAY 25
Latitude: 39-56.588978N39-56.681228N
Longitude: 120-57.158440W120-56.288500W
Elevation: 3418.5 ft.3407.7 ft.
Gradient: 0.2%0.3% UP
Traffic pattern: leftright
Runway heading: 065 magnetic, 082 true245 magnetic, 262 true
Markings: basic, in good conditionbasic, in good condition
Visual slope indicator: 2-light PAPI on left (3.00 degrees glide path)
Runway end identifier lights: nono
Touchdown point: yes, no lightsyes, no lights
Obstructions: 19 ft. road, 350 ft. from runway, 7:1 slope to clear
RWY 07 +19 FT ROAD 350 FT FM RWY 7 END 7:1 CLEARANCE SLOPE TO THLD.
none

Airport Ownership and Management from official FAA records

Ownership: Publicly-owned
Owner: COUNTY OF PLUMAS
198 ANDY'S WAY
QUINCY, CA 95971-7007
Phone 530-283-6299
Manager: KEVIN CORREIRA
198 ANDY'S WAY
QUINCY, CA 95971-7007
Phone 530-283-6070
FACILITIES OFFICE IN QUINCY. FBO PHONE AT ARPT 530-283-2600.

Airport Operational Statistics

Aircraft based on the field: 15
Single engine airplanes: 14
Ultralights: 1
    
Aircraft operations: avg 25/day *
47% local general aviation
46% transient general aviation
7% air taxi
1% military
* for 12-month period ending 31 December 2017

Additional Remarks

DUE TO PROXIMITY OF TERRAIN NRML OPNS ARE: FOR DEPS/TOUCH AND GO RWY 07. LDGS ON RWYS 07 AND 25.
ULTRALIGHTS ON AND INVOF ARPT.
RAPIDLY RISING TERRAIN WITH +100 FT TREES ON NORTH SIDE OF RY.
APRT RESTRICTED BY APRT OPER TO ACFT WITH MAX CERT TKOF WEIGHT OF 12,500 LBS OR LESS.
FIREFIGHTING ACFT INVOF ARPT MAY-OCT.
FOR CD CTC NORCAL APCH AT 916-361-6874.

Instrument Procedures

There are no published instrument procedures at 2O1.

Some nearby airports with instrument procedures:

O02 - Nervino Airport (28 nm E)
KSVE - Susanville Municipal Airport (31 nm NE)
KAHC - Amedee Army Airfield (41 nm NE)
KOVE - Oroville Municipal Airport (42 nm SW)
KCIC - Chico Municipal Airport (43 nm W)
 
Loc | Ops | Rwys | IFR | FBO | Links
Com | Nav | Svcs | Stats | Notes
Area around 2O1 (Gansner Field Airport)
 
Road maps at: MapQuest Bing Google
 
Aerial photo
WARNING: Photo may not be current or correct
Aerial photo of 2O1 (Gansner Field Airport)
Photo by Daron Lynch, RA
Photo taken 26-Jul-2009
from 8500 ft.

Do you have a better or more recent aerial photo of Gansner Field Airport that you would like to share? If so, please send us your photo.

 
Sectional chart

 
Airport distance calculator
Flying to Gansner Field Airport? Find the distance to fly.

From to 2O1

Sunrise and sunset
Times for 19-Mar-2019
 Local
(UTC-7)
 Zulu
(UTC)
Morning civil twilight06:4313:43
Sunrise07:1014:10
Sunset19:1402:14
Evening civil twilight19:4002:40

Current date and time
Zulu (UTC)  19-Mar-2019 07:47:16
Local (UTC-7)  19-Mar-2019 00:47:16
 
METAR
KSVE 
31nm NE 
190735Z AUTO 30006KT 10SM CLR 03/M01 A3009 RMK AO2
KOVE 
41nm SW 
190653Z AUTO 07007KT 10SM CLR 17/03 A2995 RMK AO2 SLP141 T01670033 $
KBLU 
41nm S 
190552Z AUTO 05004KT 10SM CLR 09/M06 A3012 RMK AO2 SLP156 T00891056 10133 20083 51005 TSNO
KCIC 
42nm W 
190735Z AUTO 00000KT 10SM CLR 13/02 A2993 RMK AO1
KGOO 
43nm S 
190740Z AUTO 09007KT 10SM CLR 14/M02 A3001 RMK AO1
TAF
NOTAMs
Click for the latest NOTAMs
NOTAMs are issued by the DoD/FAA and will open in a separate window not controlled by AirNav.

 

 
 

FBO, Fuel Providers, and Aircraft Ground Support

  
 Business Name 
 
 Contact 
 
 Services / Description 
 
Fuel Prices
 
Comments
  
Plumas County (automated fuel pump) 530-283-6299
no information available

If you are affiliated with Plumas County (automated fuel pump) and would like to show here your services, contact info, web link, logo, and more, click here
100LL
SS $4.53 
 Updated 07-Mar-2019
 
   1 read write
SS=Self service
Update Fuel Prices
 

Would you like to see your business listed on this page?

 If your business provides an interesting product or service to pilots, flight crews, aircraft, or users of the Gansner Field Airport, you should consider listing it here.  To start the listing process, click on the button below
 
Add a business
 

Other Pages about Gansner Field Airport

Update a link
 
Copyright © AirNav, LLC. All rights reserved. Privacy Policy  Contact